Temperature
19 19 19 19 19 19 19 19 19 19 19 19 19 19 19 19 19 19 19 19 19 19 19 19 19 19 19 19 19 19 19 19 19 19 19 19 19 19 19 18 18 18 18
19 19 19 19 19 19 19 19 18 19 19 19 19 19 19 18 18 19 19 19 19 19 19 19 19 19 19 19 19 19 19 19 19 19 18 18 18 18 18 18 18 18 18
19 19 19 19 19 18 18 18 18 18 18 18 18 18 18 18 18 18 18 18 18 18 18 18 18 18 18 18 18 18 18 18 19 18 18 18 18 18 18 18 18 18 18
18 18 18 19 18 18 18 18 18 18 18 18 18 18 18 18 18 18 18 18 18 18 18 18 18 18 18 18 18 18 18 19 18 18 18 18 18 18 18 18 18 18 18
19 18 19 19 19 18 18 18 18 18 18 18 18 18 18 18 18 18 18 18 18 18 18 18 18 18 18 18 18 18 18 18 18 18 18 18 18 18 18 18 18 18 18
19 19 19 19 18 18 18 18 18 18 18 18 18 17 17 17 18 18 18 18 18 18 18 18 18 18 18 18 18 18 18 18 18 18 18 17 18 18 18 18 18 18 18
19 19 19 18 18 18 18 18 17 17 17 17 17 17 17 17 17 17 17 17 17 18 18 18 18 18 18 18 18 18 18 18 18 18 18 18 18 18 18 18 18 18 18
19 19 19 18 18 18 17 17 17 17 17 17 17 17 17 17 17 17 17 17 17 17 17 18 18 18 18 18 18 18 18 18 18 18 18 18 18 18 18 18 18 18 18
19 19 19 18 18 17 17 17 17 17 16 16 16 16 16 17 17 17 17 17 17 17 17 17 18 18 18 18 18 18 18 18 18 18 18 18 18 18 18 18 18 18 18
19 19 19 18 18 17 17 17 17 16 16 16 16 16 16 16 16 16 16 16 17 17 17 17 17 17 17 17 18 18 18 18 18 18 18 18 18 18 18 18 18 18 18
20 20 19 19 18 18 17 17 16 16 16 16 16 15 16 16 16 16 16 16 16 16 17 17 17 17 17 17 18 18 18 18 18 18 18 18 18 18 18 18 18 18 18
20 20 20 19 19 18 17 17 16 16 16 16 15 15 15 15 16 16 16 16 16 16 16 16 17 17 17 17 17 17 18 18 18 18 18 18 18 18 18 18 18 18 18
20 20 19 19 19 18 17 17 16 16 16 16 16 15 15 15 15 16 16 16 16 16 16 16 16 16 17 17 17 17 18 18 18 18 18 18 18 18 18 18 18 18 18
20 19 19 19 18 18 17 17 17 16 16 16 15 15 15 15 15 15 15 15 15 16 16 16 16 16 16 17 17 17 17 17 18 18 18 18 18 18 18 18 18 18 18
20 19 19 18 18 17 17 17 17 16 16 15 15 15 15 15 15 15 15 15 15 15 15 16 16 16 16 16 17 17 17 17 17 17 17 17 18 18 18 18 18 18 18
20 20 19 18 18 17 17 17 16 16 16 15 15 15 15 15 15 15 15 15 15 15 15 15 16 16 16 16 16 17 17 17 17 17 17 17 18 18 18 18 18 18 18
21 20 19 18 17 17 17 16 16 16 16 15 15 15 15 15 15 15 15 15 15 15 15 15 15 15 16 16 16 16 17 17 17 17 17 17 17 18 18 18 18 18 18
21 20 19 18 17 17 16 16 16 16 15 15 15 15 14 15 15 14 14 14 14 15 15 15 15 15 15 16 16 16 16 17 17 17 17 17 17 17 18 18 18 18 18
20 20 19 18 17 17 16 16 16 15 15 15 15 14 14 14 14 14 14 14 14 14 14 14 15 15 15 15 16 16 16 17 17 17 17 17 17 17 18 18 17 18 18
20 19 19 18 17 16 16 16 16 15 15 15 14 14 14 14 14 14 14 14 14 14 14 14 15 15 15 15 15 16 16 16 17 17 17 17 17 17 17 17 17 17 18
19 19 19 18 17 16 16 16 15 15 15 14 14 14 13 13 13 14 13 14 14 14 14 14 14 14 15 15 15 15 16 16 16 17 17 17 17 17 17 17 17 17 18
19 19 19 18 17 16 16 15 15 15 15 15 14 14 13 13 13 13 13 13 13 14 14 14 14 14 14 15 15 15 15 16 16 17 17 17 17 17 17 17 17 17 17
19 19 19 18 17 16 15 15 15 15 15 14 14 14 13 13 13 13 13 13 13 13 14 14 14 14 14 14 15 15 15 16 16 16 16 17 17 17 17 17 17 17 17
19 19 19 18 17 16 15 15 15 14 14 14 14 14 14 13 13 13 13 13 13 13 13 13 13 14 14 14 14 15 15 15 16 16 16 16 16 16 17 17 17 17 17
19 19 18 18 17 16 15 15 14 14 14 14 14 14 14 14 13 13 13 13 13 13 13 13 13 13 13 14 14 14 15 15 15 16 15 16 16 16 16 16 17 17 17
19 18 18 17 16 15 15 15 14 14 14 14 14 14 14 14 14 13 13 13 13 13 13 13 13 13 13 13 14 14 14 14 15 15 15 15 16 16 16 16 16 16 16
Wind_Speed
10 12 12 11 10 9 8 8 7 7 6 6 5 5 5 4 4 4 4 4 4 4 4 4 5 5 5 5 6 6 6 5 5 4 3 3 3 4 4 5 5 7 8
14 14 13 11 10 9 8 7 6 6 5 5 4 4 4 3 3 3 2 3 3 3 3 3 4 4 4 4 4 5 5 5 4 3 2 1 1 2 3 5 7 7 7
15 15 13 11 10 9 8 7 6 5 5 4 4 3 3 3 3 3 3 3 3 3 3 2 2 3 3 3 3 4 4 5 5 5 6 5 3 4 4 5 6 6 6
13 14 13 12 10 9 8 7 6 5 4 4 3 3 3 3 4 4 4 4 4 4 4 3 2 3 3 3 3 4 4 5 6 8 7 2 3 6 5 4 4 4 5
13 15 13 11 10 8 7 6 6 5 4 3 2 2 3 4 4 5 5 6 5 5 5 5 4 4 3 3 3 4 4 6 8 9 8 2 6 7 5 4 3 3 4
13 15 13 11 9 8 7 6 5 4 4 3 3 3 4 4 5 5 6 6 6 6 6 5 5 5 5 4 4 4 5 6 8 9 5 1 6 6 5 4 3 3 3
11 12 13 11 10 8 6 6 5 4 4 4 4 4 4 5 5 6 6 6 6 6 6 5 6 6 6 5 5 5 5 6 8 9 5 3 7 7 5 4 3 3 3
9 9 13 12 11 9 7 5 4 3 3 3 4 5 5 6 6 7 6 6 6 6 6 6 6 7 7 6 5 5 5 7 8 7 4 5 9 8 5 4 3 3 4
6 5 9 12 11 10 8 6 4 1 1 3 4 5 6 7 8 9 9 8 7 7 7 7 6 8 8 7 6 6 6 7 8 8 6 5 10 8 6 4 4 4 4
5 4 4 5 7 7 9 9 6 4 4 5 6 7 8 9 11 12 11 9 8 7 7 7 8 9 8 8 7 7 7 8 9 10 4 7 10 8 6 4 4 4 4
4 3 4 3 4 3 5 8 7 7 7 7 8 9 9 10 8 8 9 8 7 7 8 9 9 9 9 9 8 8 8 7 9 8 3 11 11 8 5 4 4 5 5
5 3 3 2 3 3 4 3 1 1 5 5 1 2 5 5 5 5 2 7 8 9 9 9 11 9 9 7 8 9 6 8 8 6 6 13 11 8 6 4 5 5 5
4 5 5 4 4 4 3 3 2 2 1 2 4 4 4 4 4 3 1 4 6 7 6 5 7 7 6 4 3 5 7 7 5 2 7 12 11 8 6 5 5 5 6
6 5 5 5 5 5 4 2 2 1 2 2 5 7 4 2 3 2 1 1 1 2 3 3 2 5 5 5 5 5 6 4 4 1 8 12 10 9 7 6 6 7 7
6 5 6 3 4 4 2 2 1 3 2 2 3 5 5 2 3 3 3 0 1 1 1 2 3 4 5 5 5 5 4 4 3 2 5 11 11 9 8 7 7 7 7
7 6 7 3 3 2 3 3 3 2 1 3 3 5 6 3 3 3 3 3 2 1 1 2 2 3 3 3 4 4 3 3 3 4 4 8 10 10 10 9 8 8 7
7 7 8 2 3 5 6 6 3 1 3 3 3 6 6 5 3 3 4 3 3 3 2 1 2 1 2 3 3 4 2 2 3 4 3 5 8 10 11 10 9 8 8
7 7 8 3 3 5 5 3 3 2 3 2 3 5 8 9 8 3 4 4 3 3 2 1 1 1 2 1 2 2 2 1 3 4 3 4 6 7 10 12 11 9 9
7 4 7 7 3 5 2 2 1 3 2 2 4 5 7 9 9 5 4 3 4 3 3 3 1 1 1 1 2 2 2 2 3 4 3 2 4 7 8 12 12 11 10
7 3 6 7 3 3 1 2 3 3 2 2 3 4 6 6 7 5 4 5 4 4 3 3 3 2 1 2 2 1 2 2 3 3 3 2 1 4 7 9 10 10 11
7 3 5 5 5 4 2 2 3 2 1 3 2 3 4 6 7 4 5 4 4 3 4 4 2 3 1 1 1 1 1 2 2 2 2 1 2 2 4 7 9 9 9
8 5 5 6 6 6 3 1 1 2 1 3 1 3 4 6 6 7 6 5 4 3 4 4 3 2 2 1 0 1 0 0 1 2 2 2 1 0 1 4 6 8 8
8 6 3 7 7 6 4 2 3 2 2 2 1 2 2 3 4 5 6 6 5 4 3 4 4 3 2 2 2 1 1 1 1 1 1 1 1 1 1 0 1 4 7
9 6 4 8 6 6 5 4 1 1 1 1 1 2 1 3 3 4 5 6 5 4 5 5 5 3 2 2 2 2 1 1 1 0 1 0 1 1 1 0 0 1 4
8 7 4 7 7 7 4 5 1 1 1 1 1 2 1 3 3 2 3 4 4 4 5 6 5 4 3 2 2 2 2 2 1 1 0 1 1 0 0 0 1 1 2
8 8 6 7 6 7 4 4 4 2 2 1 0 1 2 1 2 3 1 3 4 4 5 5 4 4 3 3 2 2 2 2 2 2 1 0 0 0 0 1 1 1 3
Wind_Direction
109 114 115 109 104 98 92 89 85 81 76 71 66 58 53 46 38 35 35 33 25 22 23 25 22 24 26 27 26 27 28 28 29 31 38 54 62 64 63 56 52 82 84
114 113 110 105 100 95 90 86 82 78 72 65 58 51 37 24 16 9 5 1 357 353 359 7 7 10 12 16 16 15 15 13 4 350 331 293 163 109 79 57 66 91 89
113 116 109 102 98 92 86 81 76 71 65 56 45 36 20 353 342 333 322 317 316 314 315 327 336 342 352 355 355 358 360 351 338 320 297 270 187 142 102 81 83 91 90
107 108 104 103 98 92 86 79 72 64 56 46 36 18 356 331 323 313 302 297 293 287 283 281 283 296 313 322 325 331 336 331 319 310 294 259 141 129 116 100 96 99 96
104 102 103 100 96 88 80 73 66 55 40 25 12 345 327 315 310 306 300 292 288 281 274 268 266 267 272 281 292 304 311 312 309 301 298 36 110 128 120 109 103 110 114
108 107 106 103 98 90 79 70 59 45 29 9 346 316 303 301 299 295 292 288 283 280 271 265 265 263 264 264 274 284 293 301 304 291 291 105 119 126 123 114 109 121 135
108 114 120 117 112 104 91 78 62 38 12 349 328 314 306 300 298 293 288 281 278 276 269 263 262 261 258 261 266 274 282 290 279 281 275 141 129 136 136 133 128 138 149
113 122 131 136 135 134 127 111 82 42 2 336 317 307 299 293 285 279 277 273 272 275 271 265 264 254 248 245 250 260 271 280 287 299 270 157 142 140 140 145 149 152 155
112 122 139 152 155 157 149 138 125 94 326 305 295 288 283 278 271 266 261 260 261 264 263 262 263 253 247 240 238 247 260 271 283 281 280 143 137 137 142 150 156 151 154
134 134 129 141 136 152 160 158 165 186 220 249 257 260 264 266 259 254 252 247 248 256 255 254 254 251 245 242 237 239 249 261 257 260 243 142 136 138 140 149 160 159 161
139 146 130 128 120 155 172 154 186 203 211 238 245 242 256 263 260 245 233 225 234 246 250 252 252 246 242 242 240 237 241 244 251 249 193 141 140 137 143 156 166 170 171
144 119 91 82 112 95 49 95 206 226 186 231 276 246 259 286 305 298 198 217 232 242 246 248 248 245 240 237 237 232 237 243 257 239 162 150 143 143 153 164 170 175 177
112 81 53 35 64 77 79 41 4 308 48 353 31 350 328 335 320 309 259 212 225 233 234 240 234 232 225 223 230 231 243 253 256 238 157 154 147 151 164 178 185 185 181
90 79 50 20 35 58 66 9 260 60 48 21 22 358 358 346 325 339 300 291 249 224 202 214 212 216 215 218 221 232 241 254 262 187 161 158 156 160 172 181 187 189 184
114 115 85 36 33 47 92 256 28 60 41 39 42 349 351 351 338 331 311 280 278 254 225 224 236 216 211 209 220 232 248 269 277 246 169 164 165 170 179 183 188 186 182
139 125 105 62 53 28 44 25 46 42 66 48 39 350 352 357 331 330 325 339 324 290 262 244 244 234 218 200 216 229 227 262 290 263 200 175 172 177 181 185 186 186 183
131 119 101 74 32 47 41 13 16 25 50 45 26 359 355 357 348 4 356 349 329 327 327 289 281 265 245 204 205 226 229 231 266 270 225 186 181 186 186 187 185 185 184
113 110 119 105 53 66 59 11 3 33 44 25 34 19 3 6 4 14 8 345 337 345 334 299 253 272 266 224 201 224 217 225 261 272 252 205 184 182 188 190 187 185 180
103 102 122 96 53 75 64 224 98 50 43 22 45 34 11 358 2 17 349 347 354 351 344 329 357 287 274 254 219 216 215 213 247 262 261 231 192 175 178 186 188 187 183
110 116 105 112 102 82 72 344 83 74 29 46 47 42 9 349 5 8 349 11 2 357 348 341 347 331 276 228 246 216 217 208 235 257 271 296 244 185 166 172 180 192 195
134 159 132 145 131 109 57 15 51 59 7 71 52 58 355 3 6 5 4 359 1 360 353 347 351 335 336 343 46 355 255 211 219 244 236 261 270 212 164 170 179 182 189
149 186 179 136 101 94 94 10 125 101 334 105 29 66 27 20 12 4 11 359 2 5 13 359 6 5 344 339 80 104 126 279 312 260 244 230 235 175 196 189 180 174 180
156 181 170 114 124 122 121 53 29 44 336 69 50 79 48 40 29 9 358 354 359 22 13 9 25 21 348 339 29 72 105 214 281 295 269 242 134 197 209 219 178 180 174
163 167 165 131 121 103 108 84 31 87 21 60 18 91 79 96 62 31 356 352 2 22 19 16 32 9 14 5 1 10 40 97 123 301 317 300 112 173 207 183 100 91 154
152 145 132 112 115 116 115 133 243 59 355 39 29 85 333 123 108 72 2 342 0 23 27 23 21 22 20 33 13 358 11 18 353 105 140 318 345 256 189 197 98 84 91
138 135 134 126 130 132 155 175 171 151 225 215 132 54 317 143 123 98 29 353 14 30 27 16 10 27 31 24 21 22 28 37 10 28 33 35 72 336 45 78 82 106 88
Height
1508 1508 1509 1510 1510 1512 1513 1514 1514 1515 1516 1517 1518 1518 1519 1520 1520 1521 1521 1522 1522 1523 1523 1523 1523 1524 1524 1524 1524 1524 1525 1525 1525 1526 1526 1526 1527 1527 1527 1527 1527 1527 1527
1508 1508 1509 1510 1511 1512 1513 1514 1515 1515 1516 1517 1518 1518 1519 1520 1520 1521 1521 1522 1522 1523 1523 1523 1523 1524 1524 1524 1525 1525 1525 1526 1526 1526 1527 1527 1527 1527 1528 1528 1528 1528 1529
1508 1509 1510 1511 1511 1512 1513 1514 1515 1515 1516 1517 1517 1518 1519 1519 1520 1520 1521 1521 1522 1522 1522 1523 1523 1524 1524 1524 1524 1525 1525 1526 1526 1527 1527 1527 1527 1528 1528 1528 1529 1529 1529
1509 1510 1510 1511 1512 1513 1513 1514 1514 1515 1515 1516 1516 1517 1517 1518 1519 1519 1520 1520 1521 1521 1521 1522 1522 1523 1523 1524 1524 1524 1525 1526 1526 1527 1527 1527 1527 1528 1528 1529 1529 1529 1530
1510 1510 1511 1511 1512 1512 1513 1513 1513 1514 1514 1514 1515 1515 1516 1516 1517 1518 1518 1519 1519 1520 1520 1521 1521 1522 1522 1523 1523 1524 1524 1525 1526 1526 1527 1527 1527 1528 1528 1528 1529 1530 1530
1511 1511 1511 1512 1512 1512 1512 1512 1512 1512 1512 1513 1513 1513 1514 1514 1515 1515 1516 1516 1517 1518 1519 1519 1520 1520 1521 1521 1522 1522 1523 1524 1525 1526 1526 1527 1527 1527 1527 1528 1529 1530 1530
1512 1511 1512 1512 1512 1512 1512 1511 1511 1511 1511 1511 1511 1511 1511 1512 1512 1513 1513 1514 1515 1515 1516 1517 1518 1518 1519 1519 1520 1521 1522 1523 1524 1525 1526 1526 1526 1527 1527 1528 1528 1529 1530
1512 1512 1512 1512 1512 1511 1511 1511 1510 1510 1509 1509 1509 1509 1509 1509 1510 1510 1511 1511 1512 1513 1514 1514 1515 1516 1517 1518 1518 1519 1520 1521 1522 1524 1525 1525 1525 1526 1526 1527 1528 1529 1530
1513 1513 1513 1512 1511 1511 1510 1510 1510 1509 1508 1508 1507 1507 1507 1508 1508 1508 1508 1508 1509 1509 1511 1512 1513 1514 1515 1516 1516 1517 1518 1519 1520 1522 1523 1524 1524 1525 1526 1526 1527 1528 1529
1513 1514 1513 1513 1512 1511 1510 1509 1509 1508 1508 1507 1507 1506 1506 1506 1506 1506 1506 1506 1507 1507 1508 1509 1510 1511 1512 1513 1514 1515 1516 1517 1519 1520 1521 1522 1523 1524 1525 1525 1526 1527 1528
1513 1514 1513 1513 1512 1512 1511 1509 1509 1508 1507 1507 1506 1506 1505 1505 1505 1505 1505 1505 1505 1505 1505 1506 1507 1508 1509 1510 1511 1513 1514 1515 1516 1518 1519 1521 1522 1523 1523 1524 1525 1526 1528
1513 1513 1513 1513 1512 1512 1511 1510 1509 1508 1507 1507 1507 1506 1505 1505 1505 1505 1504 1504 1503 1503 1503 1503 1504 1505 1506 1507 1509 1510 1511 1513 1514 1516 1518 1519 1520 1521 1522 1523 1524 1525 1526
1513 1513 1513 1513 1512 1511 1510 1510 1509 1508 1508 1507 1506 1505 1505 1504 1504 1503 1503 1502 1502 1501 1501 1501 1502 1502 1503 1505 1506 1507 1509 1511 1512 1514 1515 1517 1519 1520 1521 1522 1523 1524 1525
1512 1512 1513 1512 1512 1511 1510 1509 1508 1508 1507 1506 1505 1505 1504 1503 1503 1502 1502 1501 1501 1501 1500 1500 1500 1501 1501 1503 1504 1505 1507 1508 1510 1512 1513 1515 1517 1518 1519 1520 1521 1523 1524
1511 1512 1511 1511 1511 1510 1509 1508 1508 1507 1507 1506 1505 1504 1503 1503 1502 1501 1501 1500 1500 1499 1499 1499 1499 1499 1500 1500 1501 1503 1504 1506 1508 1510 1511 1513 1515 1516 1517 1519 1520 1522 1523
1509 1510 1510 1511 1511 1510 1509 1508 1508 1507 1506 1506 1505 1504 1503 1502 1501 1500 1499 1499 1499 1498 1498 1498 1497 1498 1498 1499 1499 1500 1502 1504 1506 1508 1510 1511 1513 1514 1516 1517 1519 1520 1522
1508 1509 1509 1510 1510 1509 1508 1507 1507 1507 1506 1505 1504 1503 1503 1502 1501 1499 1499 1498 1497 1497 1496 1496 1496 1496 1497 1498 1498 1499 1500 1502 1503 1505 1508 1509 1511 1512 1514 1515 1517 1519 1520
1507 1508 1508 1509 1509 1508 1507 1507 1506 1506 1505 1505 1504 1503 1502 1501 1500 1499 1497 1497 1496 1495 1495 1495 1495 1495 1495 1496 1497 1498 1499 1500 1501 1503 1505 1507 1508 1510 1512 1514 1516 1517 1519
1506 1508 1507 1507 1508 1507 1506 1506 1505 1505 1505 1505 1504 1502 1501 1500 1499 1498 1497 1496 1495 1494 1494 1494 1494 1494 1494 1494 1495 1496 1497 1498 1500 1501 1503 1505 1506 1508 1510 1512 1514 1516 1518
1505 1507 1507 1506 1507 1506 1506 1506 1505 1505 1505 1504 1503 1502 1501 1500 1499 1498 1497 1495 1494 1493 1493 1493 1492 1493 1493 1493 1494 1495 1496 1497 1499 1500 1502 1503 1504 1506 1508 1510 1512 1515 1517
1503 1505 1506 1506 1505 1505 1505 1505 1504 1504 1504 1504 1503 1502 1501 1500 1499 1498 1496 1495 1494 1493 1492 1492 1492 1492 1492 1493 1494 1494 1495 1496 1497 1498 1500 1501 1502 1504 1506 1508 1510 1513 1515
1502 1504 1505 1504 1504 1504 1504 1504 1504 1504 1504 1503 1503 1502 1501 1499 1498 1497 1496 1495 1494 1494 1493 1492 1491 1491 1492 1493 1493 1494 1495 1497 1496 1497 1499 1500 1501 1503 1505 1507 1509 1511 1513
1500 1502 1503 1503 1503 1503 1503 1503 1503 1503 1503 1503 1502 1501 1501 1499 1498 1497 1496 1496 1495 1494 1493 1492 1491 1491 1492 1493 1493 1494 1495 1495 1496 1497 1498 1499 1500 1502 1504 1506 1508 1510 1511
1498 1500 1502 1501 1502 1502 1502 1502 1502 1503 1503 1503 1502 1502 1501 1500 1499 1498 1497 1496 1495 1495 1494 1493 1492 1491 1492 1492 1493 1494 1495 1495 1496 1497 1498 1499 1499 1501 1503 1504 1506 1508 1510
1495 1497 1500 1500 1500 1500 1501 1501 1502 1502 1502 1502 1502 1502 1501 1500 1499 1498 1497 1497 1496 1495 1494 1493 1493 1492 1492 1493 1493 1494 1494 1495 1496 1497 1497 1498 1499 1500 1502 1503 1505 1506 1507
1493 1495 1497 1498 1499 1499 1500 1500 1501 1501 1501 1502 1502 1501 1501 1501 1500 1498 1498 1497 1496 1496 1495 1494 1493 1493 1493 1493 1493 1494 1494 1495 1496 1496 1497 1498 1499 1500 1501 1502 1504 1505 1506